St. Paul Lake Elmo, MN

10:51 PM CST on November 18, 2019 (GMT -0600)
St. Paul Lake Elmo

Weather History for K21D - September, 2019

Change the Weather History Date:

Monday, September 16, 2019

  Actual Average (KSTP) Record (KSTP)
Temperature  
Mean Temperature 70 °F -  
Max Temperature 82 °F 70 °F 89 °F (2018)
Min Temperature 59 °F 50 °F 39 °F (2014)
Cooling Degree Days 6    
Growing Degree Days 20 (Base 50)    
Moisture  
Dew Point 64 °F    
Average Humidity 79    
Maximum Humidity 100    
Minimum Humidity 54    
Precipitation  
Precipitation 0.00 in - - ()
Sea Level Pressure  
Sea Level Pressure 30.03 in    
Wind  
Wind Speed 4 mph (WSW)    
Max Wind Speed 16 mph    
Max Gust Speed 20 mph    
Visibility 9 miles    
Events      
Averages and records for this station are not official NWS values.
T = Trace of Precipitation, MM = Missing Value Source: NWS Daily Summary

Daily Weather History Graph

Daily Weather History Graph

Search for Another Location

Airport or City:

Astronomy

Sep. 16, 2019 Rise Set
Actual Time 6:51 AM CDT 7:20 PM CDT
Civil Twilight 6:21 AM CDT 7:50 PM CDT
Nautical Twilight 5:46 AM CDT 8:24 PM CDT
Astronomical Twilight 5:10 AM CDT 9:00 PM CDT
Moon 8:50 PM CDT (9/16) 9:02 AM CDT (9/16)
Length of Visible Light 13h 28m
Length of Day
12h 29m
Waning Gibbous, 94% of the Moon is Illuminated
Sep 16
Waning Gibbous
Sep 21
Last Quarter
Sep 28
New
Oct 5
First Quarter
Oct 13
Full

Hourly Weather History & Observations

Time (CDT) Temp. Heat Index Dew Point Humidity Pressure Visibility Wind Dir Wind Speed Gust Speed Precip Events Conditions
12:15 AM 62.6 °F - 62.6 °F 100% 30.02 in 10.0 mi Calm Calm - N/A   Clear
12:35 AM 62.6 °F - 62.6 °F 100% 30.02 in 10.0 mi Calm Calm - N/A   Clear
12:36 AM 62.6 °F - 62.6 °F 100% 30.02 in 10.0 mi Calm Calm - N/A   Clear
12:55 AM 62.6 °F - 62.6 °F 100% 30.03 in 10.0 mi Calm Calm - N/A   Clear
1:17 AM 62.6 °F - 62.6 °F 100% 30.03 in 10.0 mi Calm Calm - N/A   Clear
1:36 AM 60.8 °F - 60.8 °F 100% 30.03 in 10.0 mi Calm Calm - N/A   Clear
1:55 AM 60.8 °F - 59.0 °F 94% 30.04 in 1.0 mi Calm Calm - N/A   Mostly Cloudy
1:56 AM 60.8 °F - 60.8 °F 100% 30.04 in 1.0 mi Calm Calm - N/A   Mostly Cloudy
2:15 AM 60.8 °F - 60.8 °F 100% 30.04 in 0.8 mi Calm Calm - N/A   Mostly Cloudy
2:16 AM 60.8 °F - 60.8 °F 100% 30.04 in 1.0 mi Calm Calm - N/A   Mostly Cloudy
2:36 AM 59.0 °F - 59.0 °F 100% 30.05 in 0.8 mi Calm Calm - N/A   Mist
2:55 AM 59.0 °F - 59.0 °F 100% 30.05 in 1.8 mi Calm Calm - N/A   Mist
2:56 AM 59.0 °F - 59.0 °F 100% 30.05 in 2.0 mi Calm Calm - N/A   Clear
3:15 AM 59.0 °F - 59.0 °F 100% 30.05 in 3.0 mi Calm Calm - N/A   Clear
3:16 AM 59.0 °F - 59.0 °F 100% 30.05 in 4.0 mi Calm Calm - N/A   Clear
3:35 AM 60.8 °F - 60.8 °F 100% 30.05 in 10.0 mi Calm Calm - N/A   Clear
3:58 AM 59.0 °F - 59.0 °F 100% 30.06 in 10.0 mi Calm Calm - N/A   Clear
4:16 AM 59.0 °F - 59.0 °F 100% 30.06 in 10.0 mi Calm Calm - N/A   Clear
4:35 AM 59.0 °F - 59.0 °F 100% 30.06 in 5.0 mi Calm Calm - N/A   Scattered Clouds
4:36 AM 59.0 °F - 59.0 °F 100% 30.06 in 7.0 mi Calm Calm - N/A   Clear
4:55 AM 59.0 °F - 59.0 °F 100% 30.06 in 10.0 mi Calm Calm - N/A   Clear
4:56 AM 59.0 °F - 59.0 °F 100% 30.06 in 10.0 mi Calm Calm - N/A   Clear
5:18 AM 60.8 °F - 60.8 °F 100% 30.06 in 10.0 mi WSW 3.5 mph - N/A   Clear
5:36 AM 60.8 °F - 60.8 °F 100% 30.06 in 10.0 mi Calm Calm - N/A   Clear
5:56 AM 60.8 °F - 60.8 °F 100% 30.07 in 10.0 mi Calm Calm - N/A   Scattered Clouds
6:15 AM 60.8 °F - 60.8 °F 100% 30.07 in 10.0 mi Calm Calm - N/A   Clear
6:16 AM 60.8 °F - 60.8 °F 100% 30.07 in 10.0 mi Calm Calm - N/A   Clear
6:39 AM 60.8 °F - 60.8 °F 100% 30.07 in 10.0 mi WSW 4.6 mph - N/A   Clear
6:58 AM 60.8 °F - 60.8 °F 100% 30.07 in 10.0 mi WSW 4.6 mph - N/A   Clear
7:15 AM 60.8 °F - 60.8 °F 100% 30.07 in 10.0 mi WSW 5.8 mph - N/A   Clear
7:35 AM 62.6 °F - 60.8 °F 94% 30.07 in 10.0 mi WSW 4.6 mph - N/A   Clear
7:55 AM 62.6 °F - 62.6 °F 100% 30.07 in 10.0 mi WSW 4.6 mph - N/A   Clear
7:56 AM 62.6 °F - 62.6 °F 100% 30.07 in 10.0 mi WSW 4.6 mph - N/A   Clear
8:19 AM 64.4 °F - 62.6 °F 94% 30.07 in 10.0 mi WSW 5.8 mph - N/A   Clear
8:36 AM 66.2 °F - 64.4 °F 94% 30.07 in 10.0 mi Calm Calm - N/A   Clear
8:55 AM 68.0 °F - 64.4 °F 88% 30.07 in 10.0 mi WSW 6.9 mph - N/A   Clear
9:15 AM 69.8 °F - 64.4 °F 83% 30.07 in 10.0 mi WSW 8.1 mph - N/A   Clear
9:16 AM 69.8 °F - 64.4 °F 83% 30.07 in 10.0 mi WSW 9.2 mph - N/A   Clear
9:35 AM 69.8 °F - 64.4 °F 83% 30.07 in 10.0 mi WSW 6.9 mph - N/A   Clear
9:58 AM 71.6 °F - 64.4 °F 78% 30.07 in 10.0 mi WSW 9.2 mph - N/A   Clear
10:15 AM 73.4 °F - 62.6 °F 69% 30.06 in 10.0 mi WSW 10.4 mph - N/A   Clear
10:35 AM 75.2 °F - 62.6 °F 65% 30.06 in 10.0 mi WSW 6.9 mph - N/A   Clear
10:36 AM 75.2 °F - 62.6 °F 65% 30.06 in 10.0 mi WSW 6.9 mph - N/A   Clear
10:55 AM 77.0 °F - 62.6 °F 61% 30.06 in 7.0 mi WSW 9.2 mph - N/A   Clear
10:56 AM 77.0 °F - 62.6 °F 61% 30.06 in 7.0 mi WSW 9.2 mph - N/A   Clear
11:15 AM 77.0 °F - 64.4 °F 65% 30.06 in 10.0 mi WSW 8.1 mph - N/A   Clear
11:20 AM 77.0 °F - 64.4 °F 65% 30.05 in 10.0 mi WSW 11.5 mph - N/A   Clear
11:37 AM 77.0 °F - 64.4 °F 65% 30.05 in 10.0 mi WSW 11.5 mph 17.3 mph N/A   Clear
11:56 AM 78.8 °F - 64.4 °F 61% 30.05 in 10.0 mi WSW 10.4 mph - N/A   Clear
12:15 PM 78.8 °F - 64.4 °F 61% 30.05 in 10.0 mi WSW 12.7 mph - N/A   Clear
12:16 PM 78.8 °F - 64.4 °F 61% 30.05 in 7.0 mi WSW 11.5 mph - N/A   Clear
12:35 PM 80.6 °F 82.3 °F 64.4 °F 58% 30.04 in 10.0 mi WSW 16.1 mph 19.6 mph N/A   Clear
12:36 PM 80.6 °F 82.3 °F 64.4 °F 58% 30.04 in 10.0 mi WSW 16.1 mph 19.6 mph N/A   Clear
12:59 PM 80.6 °F 82.3 °F 64.4 °F 58% 30.04 in 7.0 mi WSW 9.2 mph - N/A   Clear
1:16 PM 80.6 °F 82.3 °F 64.4 °F 58% 30.04 in 10.0 mi WSW 11.5 mph - N/A   Clear
1:35 PM 80.6 °F 82.3 °F 64.4 °F 58% 30.03 in 7.0 mi WSW 9.2 mph - N/A   Clear
1:55 PM 80.6 °F 82.3 °F 64.4 °F 58% 30.03 in 10.0 mi WSW 9.2 mph - N/A   Clear
1:56 PM 80.6 °F 82.3 °F 64.4 °F 58% 30.03 in 10.0 mi WSW 6.9 mph - N/A   Clear
2:15 PM 82.4 °F 83.9 °F 64.4 °F 54% 30.02 in 10.0 mi WSW 12.7 mph 17.3 mph N/A   Clear
2:38 PM 80.6 °F 82.3 °F 64.4 °F 58% 30.02 in 10.0 mi WSW 10.4 mph - N/A   Clear
2:55 PM 82.4 °F 83.9 °F 64.4 °F 54% 30.02 in 10.0 mi WSW 15.0 mph - N/A   Clear
3:15 PM 82.4 °F 83.9 °F 64.4 °F 54% 30.01 in 10.0 mi WSW 11.5 mph - N/A   Clear
3:16 PM 82.4 °F 83.9 °F 64.4 °F 54% 30.01 in 10.0 mi WSW 11.5 mph - N/A   Clear
3:35 PM 82.4 °F 83.9 °F 64.4 °F 54% 30.01 in 10.0 mi WSW 11.5 mph 18.4 mph N/A   Clear
3:36 PM 82.4 °F 83.9 °F 64.4 °F 54% 30.01 in 10.0 mi WSW 12.7 mph 18.4 mph N/A   Clear
3:58 PM 82.4 °F 83.9 °F 64.4 °F 54% 30.01 in 10.0 mi WSW 10.4 mph - N/A   Clear
4:16 PM 82.4 °F 83.9 °F 64.4 °F 54% 30.01 in 10.0 mi WSW 12.7 mph 16.1 mph N/A   Clear
4:36 PM 82.4 °F 83.9 °F 64.4 °F 54% 30.01 in 7.0 mi WSW 10.4 mph 16.1 mph N/A   Clear
4:55 PM 80.6 °F 82.3 °F 64.4 °F 58% 30.01 in 10.0 mi WSW 10.4 mph - N/A   Clear
4:56 PM 80.6 °F 82.3 °F 64.4 °F 58% 30.01 in 10.0 mi WSW 9.2 mph - N/A   Clear
5:15 PM 80.6 °F 82.7 °F 66.2 °F 61% 30.00 in 10.0 mi Calm Calm - N/A   Clear
5:19 PM 80.6 °F 82.7 °F 66.2 °F 61% 30.00 in 7.0 mi WSW 6.9 mph - N/A   Clear
5:37 PM 80.6 °F 83.2 °F 68.0 °F 65% 30.00 in 10.0 mi Calm Calm - N/A   Clear
5:55 PM 78.8 °F - 68.0 °F 69% 30.00 in 10.0 mi WSW 6.9 mph - N/A   Clear
6:15 PM 78.8 °F - 66.2 °F 65% 30.00 in 10.0 mi WSW 6.9 mph - N/A   Clear
6:16 PM 78.8 °F - 66.2 °F 65% 30.00 in 10.0 mi WSW 5.8 mph - N/A   Clear
6:35 PM 77.0 °F - 66.2 °F 69% 30.00 in 7.0 mi WSW 5.8 mph - N/A   Clear
6:36 PM 77.0 °F - 66.2 °F 69% 30.00 in 7.0 mi WSW 5.8 mph - N/A   Clear
6:58 PM 77.0 °F - 66.2 °F 69% 30.00 in 5.0 mi Calm Calm - N/A   Haze
7:16 PM 75.2 °F - 66.2 °F 73% 30.00 in 10.0 mi Calm Calm - N/A   Clear
7:36 PM 73.4 °F - 66.2 °F 78% 30.00 in 10.0 mi Calm Calm - N/A   Clear
7:55 PM 73.4 °F - 66.2 °F 78% 30.00 in 10.0 mi Calm Calm - N/A   Clear
8:15 PM 73.4 °F - 66.2 °F 78% 30.01 in 10.0 mi Calm Calm - N/A   Clear
8:19 PM 73.4 °F - 66.2 °F 78% 30.00 in 10.0 mi Calm Calm - N/A   Clear
8:38 PM 73.4 °F - 66.2 °F 78% 30.01 in 10.0 mi Calm Calm - N/A   Clear
8:55 PM 73.4 °F - 66.2 °F 78% 30.01 in 10.0 mi Calm Calm - N/A   Clear
9:15 PM 73.4 °F - 66.2 °F 78% 30.01 in 10.0 mi WSW 9.2 mph - N/A   Clear
9:16 PM 73.4 °F - 66.2 °F 78% 30.01 in 10.0 mi WSW 8.1 mph - N/A   Clear
9:35 PM 73.4 °F - 66.2 °F 78% 30.01 in 10.0 mi WSW 8.1 mph - N/A   Clear
9:36 PM 73.4 °F - 66.2 °F 78% 30.01 in 10.0 mi WSW 9.2 mph - N/A   Clear
9:58 PM 73.4 °F - 66.2 °F 78% 30.01 in 10.0 mi WSW 8.1 mph - N/A   Clear
10:36 PM 73.4 °F - 66.2 °F 78% 30.01 in 10.0 mi WSW 8.1 mph - N/A   Clear
10:55 PM 73.4 °F - 66.2 °F 78% 30.01 in 10.0 mi WSW 9.2 mph - N/A   Clear
11:15 PM 71.6 °F - 66.2 °F 83% 30.02 in 10.0 mi WSW 9.2 mph - N/A   Clear
11:19 PM 71.6 °F - 66.2 °F 83% 30.01 in 10.0 mi WSW 9.2 mph - N/A   Clear
11:37 PM 71.6 °F - 66.2 °F 83% 30.01 in 10.0 mi WSW 8.1 mph - N/A   Clear
11:55 PM 71.6 °F - 66.2 °F 83% 30.01 in 10.0 mi WSW 6.9 mph - N/A   Clear